This demonstration page uses our WeatherBlox Daily Observations layout. Learn more.

Left ArrowRight Arrow

38.20091, -84.87328

Hourly Observations for October 19, 2021

Temp ( °F °C ) Dew Point ( °F °C ) Humidity (%) Winds ( mph kmh ) Pressure ( in mb ) Visibility ( mi km ) Precip ( " mm )
12:53 am 00:53 Clear 46 7.8 44 6.7 93 93 N N/A 30.17 1022 10 16 N/A
1:53 am 01:53 Clear 46 7.8 44 6.7 93 93 N N/A 30.17 1022 10 16 N/A
2:53 am 02:53 Clear 45 7.2 43 6.1 93 93 N N/A 30.18 1022 10 16 N/A
3:53 am 03:53 Clear 43 6.1 41 5 93 93 N N/A 30.18 1022 10 16 N/A
4:53 am 04:53 Clear 42 5.6 41 5 96 96 N N/A 30.18 1022 10 16 N/A
5:53 am 05:53 Clear 42 5.6 40 4.4 92 92 N N/A 30.20 1023 10 16 N/A
6:53 am 06:53 Clear 41 5 39 3.9 93 93 N N/A 30.23 1024 10 16 N/A
7:53 am 07:53 Sunny 41 5 40 4.4 96 96 N N/A 30.23 1024 9 14 N/A
8:53 am 08:53 Sunny 47 8.3 44 6.7 90 90 N N/A 30.24 1024 10 16 N/A
9:53 am 09:53 Sunny 54 12.2 49 9.4 83 83 N N/A 30.25 1024 10 16 N/A
10:53 am 10:53 Sunny 61 16.1 48 8.9 63 63 SW 3 6 30.26 1025 10 16 N/A
11:53 am 11:53 Sunny 66 18.9 49 9.4 54 54 SSW 6 9 30.24 1024 10 16 N/A
12:53 pm 12:53 Sunny 69 20.6 44 6.7 41 41 undefined N/A 30.23 1024 10 16 N/A
1:53 pm 13:53 Sunny 70 21.1 44 6.7 39 39 VRB 5 7 30.20 1023 10 16 N/A
2:53 pm 14:53 Sunny 70 21.1 45 7.2 41 41 SW 7 11 30.18 1022 10 16 N/A
3:53 pm 15:53 Sunny 71 21.7 45 7.2 39 39 S 8 13 30.16 1022 10 16 N/A
4:53 pm 16:53 Sunny 70 21.1 46 7.8 42 42 S 5 7 30.16 1021 10 16 N/A
5:53 pm 17:53 Sunny 69 20.6 48 8.9 47 47 SSW 6 9 30.15 1021 10 16 N/A
6:53 pm 18:53 Sunny 64 17.8 50 10 60 60 WSW 3 6 30.16 1021 10 16 N/A
7:53 pm 19:53 Clear 59 15 51 10.6 75 75 N N/A 30.16 1022 10 16 N/A
8:53 pm 20:53 Clear 57 13.9 50 10 78 78 N N/A 30.16 1022 10 16 N/A
9:53 pm 21:53 Clear 52 11.1 49 9.4 89 89 N N/A 30.17 1022 10 16 N/A
10:53 pm 22:53 Clear 53 11.7 49 9.4 86 86 N N/A 30.17 1022 10 16 N/A
11:53 pm 23:53 Clear 49 9.4 47 8.3 93 93 N N/A 30.17 1022 10 16 N/A

Powered by AerisWeather